Muskegon, MI

2:57 AM EDT on August 26, 2016 (GMT -0400)
Muskegon County

Weather History for KMKG - May, 2013

Change the Weather History Date:

Saturday, May 25, 2013

  Actual Average Record
Temperature  
Mean Temperature 51 °F 60 °F  
Max Temperature 64 °F 70 °F 88 °F (1977)
Min Temperature 37 °F 50 °F 32 °F (1992)
Degree Days  
Heating Degree Days 14 7  
Month to date heating degree days 163 243  
Since 1 July heating degree days 6253 6461  
Cooling Degree Days 0 1  
Month to date cooling degree days 34 17  
Year to date cooling degree days 38 21  
Moisture  
Dew Point 37 °F    
Average Humidity 57    
Maximum Humidity 85    
Minimum Humidity 29    
Precipitation  
Precipitation 0.00 in 0.11 in 1.85 in (1991)
Month to date precipitation 3.50 2.65  
Year to date precipitation 21.62 11.67  
Snow  
Snow 0.00 in 0.00 in T in (1989)
Month to date snowfall 0.0 0.0  
Since 1 July snowfall 98.6 93.7  
Snow Depth 0.00 in    
Sea Level Pressure  
Sea Level Pressure 30.36 in    
Wind  
Wind Speed 5 mph (NNW)    
Max Wind Speed 12 mph    
Max Gust Speed 16 mph    
Visibility 10 miles    
Events      
T = Trace of Precipitation, MM = Missing Value Source: NWS Daily Summary

Daily Weather History Graph

Daily Weather History Graph

Search for Another Location

Airport or City:

Trip Planner

Search our weather history database for the weather conditions in past years. The results will help you decide how hot, cold, wet, or windy it might be!

Date:

Astronomy

May. 25, 2013 Rise Set
Actual Time 6:12 AM EDT 9:12 PM EDT
Civil Twilight 5:38 AM EDT 9:46 PM EDT
Nautical Twilight 4:54 AM EDT 10:29 PM EDT
Astronomical Twilight 4:03 AM EDT 11:21 PM EDT
Moon 9:59 PM EDT (5/25) 6:39 AM EDT (5/25)
Length of Visible Light 16h 08m
Length of Day
15h 00m
Full, 100% of the Moon is Illuminated
May 25
Full
May 31
Last Quarter
Jun 8
New
Jun 16
First Quarter
Jun 23
Full

Hourly Weather History & Observations

Time (EDT) Temp. Windchill Dew Point Humidity Pressure Visibility Wind Dir Wind Speed Gust Speed Precip Events Conditions
12:55 AM 46.0 °F 43.1 °F 37.9 °F 73% 30.38 in 10.0 mi North 5.8 mph - N/A   Clear
1:55 AM 45.0 °F - 37.0 °F 74% 30.38 in 10.0 mi Calm Calm - N/A   Clear
2:55 AM 43.0 °F - 37.9 °F 82% 30.36 in 10.0 mi Calm Calm - N/A   Clear
3:55 AM 39.0 °F - 36.0 °F 89% 30.34 in 10.0 mi Calm Calm - N/A   Clear
4:55 AM 42.1 °F - 37.0 °F 82% 30.36 in 10.0 mi Calm Calm - N/A   Clear
5:55 AM 39.0 °F 35.7 °F 35.1 °F 86% 30.36 in 10.0 mi NE 4.6 mph - N/A   Clear
6:55 AM 42.1 °F 37.7 °F 37.0 °F 82% 30.39 in 10.0 mi NE 6.9 mph - N/A   Clear
7:55 AM 46.0 °F 43.9 °F 37.9 °F 73% 30.41 in 10.0 mi NE 4.6 mph - N/A   Clear
8:55 AM 51.1 °F - 39.0 °F 63% 30.42 in 10.0 mi NE 8.1 mph - N/A   Clear
9:55 AM 54.0 °F - 36.0 °F 51% 30.43 in 10.0 mi ENE 8.1 mph - N/A   Clear
10:55 AM 59.0 °F - 33.1 °F 38% 30.41 in 10.0 mi North 5.8 mph - N/A   Clear
11:55 AM 61.0 °F - 28.9 °F 30% 30.40 in 10.0 mi NE 6.9 mph - N/A   Clear
12:55 PM 57.9 °F - 37.9 °F 47% 30.40 in 10.0 mi West 6.9 mph - N/A   Clear
1:55 PM 57.9 °F - 37.0 °F 46% 30.39 in 10.0 mi West 9.2 mph - N/A   Clear
2:55 PM 59.0 °F - 35.1 °F 41% 30.37 in 10.0 mi West 10.4 mph - N/A   Clear
3:55 PM 59.0 °F - 35.1 °F 41% 30.35 in 10.0 mi WNW 6.9 mph - N/A   Clear
4:55 PM 62.1 °F - 36.0 °F 38% 30.33 in 10.0 mi West 5.8 mph - N/A   Clear
5:55 PM 61.0 °F - 35.1 °F 38% 30.33 in 10.0 mi WNW 9.2 mph - N/A   Clear
6:55 PM 59.0 °F - 34.0 °F 39% 30.33 in 10.0 mi WNW 8.1 mph - N/A   Clear
7:55 PM 60.1 °F - 36.0 °F 41% 30.32 in 10.0 mi NW 5.8 mph - N/A   Clear
8:55 PM 57.0 °F - 37.0 °F 47% 30.31 in 10.0 mi NW 4.6 mph - N/A   Clear
9:55 PM 54.0 °F - 39.0 °F 57% 30.30 in 10.0 mi Calm Calm - N/A   Clear
10:55 PM 50.0 °F - 41.0 °F 71% 30.32 in 10.0 mi NNW 3.5 mph - N/A   Clear
11:55 PM 48.0 °F - 41.0 °F 77% 30.32 in 10.0 mi Calm Calm - N/A   Clear